Volver al catálogo

CZ-4B DEB

ActivoSSO
NORAD 35405·DEBRIS·🇨🇳 China

Lanzado May 15, 2002 desde Taiyuan Satellite Launch Center

Loading…

Próximos Pases (próximas 24 horas)

TLE

ActualizadoSource: Space-Track

Época: Sep 14, 2026, 14:15 UTC

1 35405U 02024K   26257.59434998  .00000512  00000-0  25193-3 0  9999
2 35405  98.8820 304.7953 0118758 240.0269 118.9075 14.18462471249462

Sigue CZ-4B DEB en tiempo real con AllMySat

Download on the App Store